Location: ?
(35.4554°N, 139.3092°E)
Time: 22:38:25
(UTC+00:00)

X-37B - Pass Details

Date: 21 April 2021
Orbit: 386 x 389 km, 45.0° (Epoch: 08 May)

Event Time Altitude Azimuth Distance (km) Brightness Sun altitude
Exits shadow 18:56:04 - 310° (NW) 1,844 3.8 -13.4°
Reaches altitude 10° 18:57:34 10° 327° (NNW) 1,414 3.3 -13.1°
Maximum altitude 18:59:29 15° 4° (N) 1,158 3.4 -12.7°
Drops below altitude 10° 19:01:25 10° 42° (NE) 1,412 4.6 -12.4°
Sets 19:04:08 0° 67° (ENE) 2,265 6.7 -11.9°
